RADUGA-1M 3

Last updated on Sat Aug 15 2026 00:02:59 GMT+0000 (Coordinated Universal Time)

1 39375U 13062A 26226.28972617 .00000137 00000+0 00000+0 0 9998 2 39375 6.1025 71.5982 0002351 298.3872 91.9893 1.00271945 46698
UTC large
Height (km)
Speed (km/s)
/
Latitude / Longitude
Inclination (degrees)
Orbital Period (minutes)
Azimuth
Elevation
Range (km)
Doppler Factor

Next 0 passes for location: London (51.5072 / 0.1276)

No passes found over London.
RADUGA-1M 3